Hawaii meteor
(Preview)
Meteorite News
0
2132
"Look out! " shouted Gregory McCartney, who runs astronomy education programs at Ko Olina, as a fireball flew overhead. He thought his group of 18 was about to be hit, but the mysterious object suddenly disappeared. Another isle resident who saw the green fireball in the sky the night of F...
Asteroid 2009 DO1
(Preview)
Solar System
0
423
Asteroid 2009 DO1 = SW40g1 (NEOCPO) Orbital elements: 2009 DO1 Earth MOID = 0.0687 AU Epoch 2008 Nov. 30.0 TT = JDT 2454800.5 MPC M 331.41431 (2000.0) P Q n 0.35736207 Peri. 356.26650 -0.89010872 -0.45329435 a 1.9666651 Node 156.59735 +0.42116048 -0.85772871 e 0.4617584 Incl. 6.82926 +0.1741560...
Asteroid 2009 DM1
(Preview)
Solar System
0
419
Asteroid 2009 DM1 = 9D11498 (NEOCPO) Orbital elements: 2009 DM1 Earth MOID = 0.0812 AU Epoch 2009 Feb. 18.0 TT = JDT 2454880.5 MPC M 7.34530 (2000.0) P Q n 0.20578919 Peri. 212.22701 +0.64274183 -0.76152069 a 2.8413256 Node 198.22746 +0.74724515 +0.64722058 e 0.6371332 Incl. 15.47948 +0.1688420...
Asteroid 2009 DL1
(Preview)
Solar System
0
438
Asteroid 2009 DL1 = 92I0010 (NEOCPO) Orbital elements: 2009 DL1 Earth MOID = 0.1788 AU Epoch 2008 Nov. 30.0 TT = JDT 2454800.5 MPC M 312.32959 (2000.0) P Q n 0.32179404 Peri. 226.78557 -0.77066120 +0.63719898 a 2.1090363 Node 352.78577 -0.56553569 -0.68943360 e 0.4401464 Incl. 3.50010 -0.293684...
Asteroid 2009 DF1
(Preview)
Solar System
0
443
Asteroid 2009 DF1 = 9D13A5B (NEOCPO) Orbital elements: 2009 DF1 Earth MOID = 0.1874 AU Epoch 2008 Nov. 30.0 TT = JDT 2454800.5 MPC M 325.65537 (2000.0) P Q n 0.34513370 Peri. 32.40775 -0.99496038 -0.09076387 a 2.0128487 Node 142.31247 +0.07051315 -0.93550587 e 0.4145790 Incl. 3.99679 +0.0712863...
Asteroid 2009 DE1
(Preview)
Solar System
0
427
Asteroid 2009 DE1 = 9D12D51 (NEOCPO)
Orbital elements: 2009 DE1 Earth MOID = 0.0004 AU Epoch 2009 Feb. 18.0 TT = JDT 2454880.5 MPC M 337.27294 (2000.0) P Q n 0.41402875 Peri. 83.34727 -0.49026939 +0.87154606 a 1.7828538 Node 157.29077 -0.80624087 -0.45063660 e 0.6288602 Incl. 0.97765 -0.331076...
Asteroid 2009 DD1
(Preview)
Solar System
0
410
Asteroid 2009 DD1 = 9D12427 (NEOCPO) Orbital elements: 2009 DD1 Earth MOID = 0.1954 AU Epoch 2008 Nov. 30.0 TT = JDT 2454800.5 MPC M 211.57326 (2000.0) P Q n 0.70698432 Peri. 96.79606 -0.21113378 +0.96047101 a 1.2479472 Node 158.23890 -0.97141770 -0.22678500 e 0.1188682 Incl. 29.30013 +0.108490...
Asteroid 2009 DC1
(Preview)
Solar System
0
439
Asteroid 2009 DC1 = 9D11F72 (NEOCPO)
Orbital elements: 2009 DC1 Earth MOID = 0.0308 AU Epoch 2009 Feb. 18.0 TT = JDT 2454880.5 MPC M 123.30497 (2000.0) P Q n 1.20265780 Peri. 35.79480 +0.99191585 -0.10058357 a 0.8757390 Node 329.69931 +0.04668678 +0.85619202 e 0.2773559 Incl. 8.82083 +0.117996...
Asteroid 2009 DZ
(Preview)
Solar System
0
464
Orbital elements: 2009 DZ PHA, Earth MOID = 0.0465 AU Epoch 2009 Feb. 18.0 TT = JDT 2454880.5 MPC M 9.95573 (2000.0) P Q n 0.57196334 Peri. 333.31962 -0.57566244 -0.80860017 a 1.4373325 Node 151.33518 +0.78817792 -0.58830075 e 0.2953247 Incl. 14.68063 +0.21768860 -0.00824612 P 1.72 H 21.4 G 0.15 F...
Titan Saturn System Mission
(Preview)
Mission News
2
585
Ambitious plans to send probes to the outer planets are being considered by US and European space officials. One proposal envisages sending an orbiter to Saturn which would also drop a lander and a balloon on to the haze-shrouded moon Titan. The other sees two separate orbiters despatched to invest...
Windows XP Hack
(
1 2
)
(Preview)
Computers
10
12055
The German Computer magazine C'T (Heise) is describing in its current print issue how to change Windows XP Home to a Windows XP Professional version before install.
Microsoft is not going to like this. The C'T magazine apparently found out that by changing 2 bytes in the installation file of Win... >>>
GRB 080916C
(Preview)
Cosmology News
0
2856
Most Extreme Gamma-Ray Blast Ever, Seen by Fermi Gamma-ray Space Telescope With the greatest total energy, the fastest motions, and the highest-energy initial emissions ever before seen, a gamma-ray burst recently observed by the Fermi Gamma-ray Space Telescope is one for the record books. The...
Hawking-like radiation
(Preview)
Physics News
0
2783
Title: Hawking-like radiation as tunnelling from the apparent horizon in a FRW Universe Authors: Tao Zhu, Ji-Rong Ren, Douglas Singleton We study Hawking-like radiation in a Friedmann-Robertson-Walker (FRW) universe using the quasi-classical WKB/tunnelling method which pictures this pro...
Asteroid 2009 BD2
(Preview)
Solar System
0
379
Asteroid 2009 BD2 = 9D11D50 (NEOCPO) Orbital elements: 2009 BD2 Earth MOID = 0.4014 AU Epoch 2008 Nov. 30.0 TT = JDT 2454800.5 MPC M 12.46399 (2000.0) P Q n 0.23625655 Peri. 262.23827 +0.35172136 -0.93430079 a 2.5914737 Node 166.71580 +0.92717717 +0.33914624 e 0.5076287 Incl. 14.64288 +0.12897...
Asteroid 2009 DX
(Preview)
Solar System
0
434
Asteroid 2009 DX = BO54825 (NEOCPO) Orbital elements: 2009 DX Earth MOID = 0.0592 AU Epoch 2008 Nov. 30.0 TT = JDT 2454800.5 MPC M 334.45365 (2000.0) P Q n 0.26124036 Peri. 21.03460 -0.98312393 -0.13349840 a 2.4234972 Node 150.42328 +0.10944721 -0.97707902 e 0.5749140 Incl. 14.67960 +0.146590...
«First < 1
2153 2154 2155 2156 2157
2461 > Last» | Page
